Terminal Aerodrome Forecast
Issued by NWS

Home | Current Version | Previous Version | Text Only | Print | Product List | Glossary On
Versions: 1 2 3 4 5 6 7 8 9 10 11 12 13 14 15 16 17
000
FTUS41 KPBZ 011500 AAA
TAFFKL
TAF AMD
KFKL 011505Z 0115/0212 16005KT 1SM -SN BR OVC015
     FM011700 13006KT 2SM -SN OVC015
     FM020000 10007KT 1/2SM SN OVC003
     FM020900 18009KT 2SM -SN OVC008
      AMD LTD TO CLD VIS AND WIND=

USA.gov is the U.S. government's official web portal to all federal, state and local government web resources and services.